QPF
0.00 0.00 0.00 0.00 0.00 0.00 0.00 0.00 0.00 0.00 0.01 0.01 0.00 0.00 0.00 0.00 0.00 0.00 0.00 0.00 0.00 0.00 0.00 0.00 0.00 0.00 0.01 0.01 0.02 0.03 0.04 0.03 0.03 0.04 0.04 0.05 0.04 0.03 0.04 0.04 0.04 0.04 0.05 0.06
0.00 0.00 0.00 0.00 0.00 0.00 0.00 0.00 0.00 0.00 0.00 0.00 0.00 0.00 0.00 0.00 0.00 0.00 0.00 0.00 0.00 0.00 0.00 0.00 0.00 0.00 0.00 0.00 0.00 0.01 0.01 0.01 0.01 0.01 0.02 0.02 0.01 0.01 0.02 0.02 0.02 0.02 0.02 0.04
0.00 0.00 0.00 0.00 0.00 0.00 0.00 0.00 0.00 0.00 0.00 0.00 0.00 0.00 0.00 0.00 0.00 0.00 0.00 0.00 0.00 0.00 0.00 0.00 0.00 0.00 0.00 0.00 0.00 0.00 0.00 0.01 0.01 0.01 0.00 0.01 0.01 0.01 0.01 0.01 0.01 0.01 0.02 0.02
0.00 0.00 0.00 0.00 0.00 0.00 0.00 0.00 0.00 0.00 0.00 0.00 0.00 0.00 0.00 0.00 0.00 0.00 0.00 0.00 0.00 0.00 0.00 0.00 0.00 0.00 0.00 0.00 0.00 0.00 0.00 0.00 0.00 0.00 0.01 0.01 0.01 0.01 0.00 0.00 0.01 0.01 0.02 0.02
0.00 0.00 0.00 0.00 0.00 0.00 0.00 0.00 0.00 0.00 0.00 0.00 0.00 0.00 0.00 0.00 0.00 0.00 0.00 0.00 0.00 0.00 0.00 0.00 0.00 0.00 0.00 0.00 0.00 0.00 0.00 0.00 0.00 0.00 0.00 0.00 0.00 0.00 0.01 0.01 0.01 0.01 0.01 0.01
0.00 0.00 0.00 0.00 0.00 0.00 0.00 0.00 0.00 0.00 0.00 0.00 0.00 0.00 0.00 0.00 0.00 0.00 0.00 0.00 0.00 0.00 0.00 0.00 0.00 0.00 0.00 0.00 0.00 0.00 0.00 0.00 0.00 0.00 0.00 0.00 0.00 0.00 0.01 0.01 0.00 0.00 0.00 0.01
0.00 0.00 0.00 0.00 0.00 0.00 0.00 0.00 0.00 0.00 0.00 0.00 0.00 0.00 0.00 0.00 0.00 0.00 0.00 0.00 0.00 0.00 0.00 0.00 0.00 0.00 0.00 0.00 0.00 0.00 0.00 0.00 0.00 0.00 0.00 0.00 0.00 0.00 0.00 0.00 0.00 0.00 0.00 0.00
0.00 0.00 0.00 0.00 0.00 0.00 0.00 0.00 0.00 0.00 0.00 0.00 0.00 0.00 0.00 0.00 0.00 0.00 0.00 0.00 0.00 0.00 0.00 0.00 0.00 0.00 0.00 0.00 0.00 0.00 0.00 0.00 0.00 0.00 0.00 0.00 0.00 0.00 0.00 0.00 0.00 0.00 0.00 0.00
0.00 0.00 0.00 0.00 0.00 0.00 0.00 0.00 0.00 0.00 0.00 0.00 0.00 0.00 0.00 0.00 0.00 0.00 0.00 0.00 0.00 0.00 0.00 0.00 0.00 0.00 0.00 0.00 0.00 0.00 0.00 0.00 0.00 0.00 0.00 0.00 0.00 0.00 0.00 0.00 0.00 0.00 0.00 0.00
0.00 0.00 0.00 0.00 0.00 0.00 0.00 0.00 0.00 0.00 0.00 0.00 0.00 0.00 0.00 0.00 0.00 0.00 0.00 0.00 0.00 0.00 0.00 0.00 0.00 0.00 0.00 0.00 0.00 0.00 0.00 0.00 0.00 0.00 0.00 0.00 0.00 0.00 0.00 0.00 0.00 0.00 0.00 0.00
0.00 0.00 0.00 0.00 0.00 0.00 0.00 0.00 0.00 0.00 0.00 0.00 0.00 0.00 0.00 0.00 0.00 0.00 0.00 0.00 0.00 0.00 0.00 0.00 0.00 0.00 0.00 0.00 0.00 0.00 0.00 0.00 0.00 0.00 0.00 0.00 0.00 0.00 0.00 0.00 0.00 0.00 0.00 0.00
0.00 0.00 0.00 0.00 0.00 0.00 0.00 0.00 0.00 0.00 0.00 0.00 0.00 0.00 0.00 0.00 0.00 0.00 0.00 0.00 0.00 0.00 0.00 0.00 0.00 0.00 0.00 0.00 0.00 0.00 0.00 0.00 0.00 0.00 0.00 0.00 0.00 0.00 0.00 0.00 0.00 0.00 0.00 0.00
0.00 0.00 0.00 0.00 0.00 0.00 0.00 0.00 0.00 0.00 0.00 0.00 0.00 0.00 0.00 0.00 0.00 0.00 0.00 0.00 0.00 0.00 0.00 0.00 0.00 0.00 0.00 0.00 0.00 0.00 0.00 0.00 0.00 0.00 0.00 0.00 0.00 0.00 0.00 0.00 0.00 0.00 0.00 0.00
0.00 0.00 0.00 0.00 0.00 0.00 0.00 0.00 0.00 0.00 0.00 0.00 0.00 0.00 0.00 0.00 0.00 0.00 0.00 0.00 0.00 0.00 0.00 0.00 0.00 0.00 0.00 0.00 0.00 0.00 0.00 0.00 0.00 0.00 0.00 0.00 0.00 0.00 0.00 0.00 0.00 0.00 0.00 0.00
0.00 0.00 0.00 0.00 0.00 0.00 0.00 0.00 0.00 0.00 0.00 0.00 0.00 0.00 0.00 0.00 0.00 0.00 0.00 0.00 0.00 0.00 0.00 0.00 0.00 0.00 0.00 0.00 0.00 0.00 0.00 0.00 0.00 0.00 0.00 0.00 0.00 0.00 0.00 0.00 0.00 0.00 0.00 0.00
0.00 0.00 0.00 0.00 0.00 0.00 0.00 0.00 0.00 0.00 0.00 0.00 0.00 0.00 0.00 0.00 0.00 0.00 0.00 0.00 0.00 0.00 0.00 0.00 0.00 0.00 0.00 0.00 0.00 0.00 0.00 0.00 0.00 0.00 0.00 0.00 0.00 0.00 0.00 0.00 0.00 0.00 0.00 0.00
0.00 0.00 0.00 0.00 0.00 0.00 0.00 0.00 0.00 0.00 0.00 0.00 0.00 0.00 0.00 0.00 0.00 0.00 0.00 0.00 0.00 0.00 0.00 0.00 0.00 0.00 0.00 0.00 0.00 0.00 0.00 0.00 0.00 0.00 0.00 0.00 0.00 0.00 0.00 0.00 0.00 0.00 0.00 0.00
0.00 0.00 0.00 0.00 0.00 0.00 0.00 0.00 0.00 0.00 0.00 0.00 0.00 0.00 0.00 0.00 0.00 0.00 0.00 0.00 0.00 0.00 0.00 0.00 0.00 0.00 0.00 0.00 0.00 0.00 0.00 0.00 0.00 0.00 0.00 0.00 0.00 0.00 0.00 0.00 0.00 0.00 0.00 0.00
0.00 0.00 0.00 0.00 0.00 0.00 0.00 0.00 0.00 0.00 0.00 0.00 0.00 0.00 0.00 0.00 0.00 0.00 0.00 0.00 0.00 0.00 0.00 0.00 0.00 0.00 0.00 0.00 0.00 0.00 0.00 0.00 0.00 0.00 0.00 0.00 0.00 0.00 0.00 0.00 0.00 0.00 0.00 0.00
0.00 0.00 0.00 0.00 0.00 0.00 0.00 0.00 0.00 0.00 0.00 0.00 0.00 0.00 0.00 0.00 0.00 0.00 0.00 0.00 0.00 0.00 0.00 0.00 0.00 0.00 0.00 0.00 0.00 0.00 0.00 0.00 0.00 0.00 0.00 0.00 0.00 0.00 0.00 0.00 0.00 0.00 0.00 0.00
0.00 0.00 0.00 0.00 0.00 0.00 0.00 0.00 0.00 0.00 0.00 0.00 0.00 0.00 0.00 0.00 0.00 0.00 0.00 0.00 0.00 0.00 0.00 0.00 0.00 0.00 0.00 0.00 0.00 0.00 0.00 0.00 0.00 0.00 0.00 0.00 0.00 0.00 0.00 0.00 0.00 0.00 0.00 0.00
0.00 0.00 0.00 0.00 0.00 0.00 0.00 0.00 0.00 0.00 0.00 0.00 0.00 0.00 0.00 0.00 0.00 0.00 0.00 0.00 0.00 0.00 0.00 0.00 0.00 0.00 0.00 0.00 0.00 0.00 0.00 0.00 0.00 0.00 0.00 0.00 0.00 0.00 0.00 0.00 0.00 0.00 0.00 0.00
0.00 0.00 0.00 0.00 0.00 0.00 0.00 0.00 0.00 0.00 0.00 0.00 0.00 0.00 0.00 0.00 0.00 0.00 0.00 0.00 0.00 0.00 0.00 0.00 0.00 0.00 0.00 0.00 0.00 0.00 0.00 0.00 0.00 0.00 0.00 0.00 0.00 0.00 0.00 0.00 0.00 0.00 0.00 0.00
0.00 0.00 0.00 0.00 0.00 0.00 0.00 0.00 0.00 0.00 0.00 0.00 0.00 0.00 0.00 0.00 0.00 0.00 0.00 0.00 0.00 0.00 0.00 0.00 0.00 0.00 0.00 0.00 0.00 0.00 0.00 0.00 0.00 0.00 0.00 0.00 0.00 0.00 0.00 0.00 0.00 0.00 0.00 0.00
0.00 0.00 0.00 0.00 0.00 0.00 0.00 0.00 0.00 0.00 0.00 0.00 0.00 0.00 0.00 0.00 0.00 0.00 0.00 0.00 0.00 0.00 0.00 0.00 0.00 0.00 0.00 0.00 0.00 0.00 0.00 0.00 0.00 0.00 0.00 0.00 0.00 0.00 0.00 0.00 0.00 0.00 0.00 0.00
0.00 0.00 0.00 0.00 0.00 0.00 0.00 0.00 0.00 0.00 0.00 0.00 0.00 0.00 0.00 0.00 0.00 0.00 0.00 0.00 0.00 0.00 0.00 0.00 0.00 0.00 0.00 0.00 0.00 0.00 0.00 0.00 0.00 0.00 0.00 0.00 0.00 0.00 0.00 0.00 0.00 0.00 0.00 0.00
0.00 0.00 0.00 0.00 0.00 0.00 0.00 0.00 0.00 0.00 0.00 0.00 0.00 0.00 0.00 0.00 0.00 0.00 0.00 0.00 0.00 0.00 0.00 0.00 0.00 0.00 0.00 0.00 0.00 0.00 0.00 0.00 0.00 0.00 0.00 0.00 0.00 0.00 0.00 0.00 0.00 0.00 0.00 0.00
MSLP
1024.63 1025.17 1025.69 1026.15 1026.54 1026.82 1026.98 1027.00 1026.89 1026.66 1026.32 1025.90 1025.43 1024.93 1024.43 1023.95 1023.49 1023.07 1022.68 1022.32 1021.98 1021.66 1021.35 1021.04 1020.71 1020.36 1019.98 1019.56 1019.10 1018.60 1018.06 1017.51 1016.97 1016.43 1015.94 1015.49 1015.10 1014.76 1014.47 1014.23 1014.02 1013.83 1013.66 1013.52
1024.90 1025.32 1025.67 1025.95 1026.14 1026.24 1026.24 1026.16 1026.00 1025.78 1025.50 1025.19 1024.85 1024.50 1024.14 1023.77 1023.39 1023.02 1022.65 1022.30 1021.96 1021.65 1021.35 1021.07 1020.80 1020.53 1020.23 1019.90 1019.53 1019.11 1018.64 1018.15 1017.64 1017.14 1016.66 1016.22 1015.83 1015.49 1015.18 1014.92 1014.67 1014.44 1014.23 1014.04
1025.18 1025.44 1025.60 1025.67 1025.66 1025.58 1025.45 1025.28 1025.09 1024.90 1024.70 1024.51 1024.31 1024.09 1023.85 1023.58 1023.27 1022.93 1022.57 1022.21 1021.85 1021.53 1021.24 1020.99 1020.77 1020.56 1020.35 1020.12 1019.85 1019.52 1019.15 1018.73 1018.28 1017.82 1017.37 1016.95 1016.57 1016.22 1015.92 1015.64 1015.38 1015.13 1014.89 1014.66
1025.44 1025.51 1025.48 1025.35 1025.15 1024.91 1024.66 1024.43 1024.23 1024.08 1023.97 1023.89 1023.81 1023.72 1023.59 1023.39 1023.14 1022.82 1022.45 1022.07 1021.69 1021.35 1021.06 1020.83 1020.65 1020.51 1020.39 1020.25 1020.09 1019.86 1019.58 1019.25 1018.87 1018.47 1018.06 1017.68 1017.32 1016.99 1016.69 1016.42 1016.16 1015.90 1015.65 1015.41
1025.59 1025.48 1025.25 1024.95 1024.59 1024.23 1023.90 1023.63 1023.44 1023.34 1023.31 1023.33 1023.37 1023.38 1023.33 1023.21 1022.99 1022.68 1022.32 1021.91 1021.52 1021.16 1020.87 1020.65 1020.51 1020.43 1020.39 1020.34 1020.27 1020.15 1019.97 1019.72 1019.43 1019.10 1018.75 1018.41 1018.09 1017.79 1017.51 1017.25 1016.99 1016.74 1016.48 1016.23
1025.53 1025.26 1024.88 1024.44 1023.97 1023.53 1023.16 1022.88 1022.72 1022.67 1022.72 1022.83 1022.96 1023.06 1023.09 1023.01 1022.83 1022.54 1022.17 1021.77 1021.36 1021.00 1020.71 1020.51 1020.40 1020.37 1020.39 1020.43 1020.44 1020.42 1020.33 1020.18 1019.97 1019.71 1019.43 1019.15 1018.87 1018.60 1018.35 1018.11 1017.86 1017.62 1017.36 1017.10
1025.17 1024.79 1024.31 1023.78 1023.26 1022.79 1022.42 1022.16 1022.05 1022.06 1022.18 1022.37 1022.57 1022.74 1022.82 1022.80 1022.65 1022.39 1022.04 1021.65 1021.24 1020.89 1020.61 1020.43 1020.35 1020.36 1020.42 1020.52 1020.61 1020.66 1020.66 1020.60 1020.47 1020.30 1020.09 1019.86 1019.63 1019.41 1019.18 1018.96 1018.72 1018.48 1018.22 1017.94
1024.47 1024.02 1023.50 1022.96 1022.44 1022.00 1021.66 1021.46 1021.40 1021.48 1021.67 1021.91 1022.18 1022.40 1022.54 1022.56 1022.46 1022.23 1021.92 1021.55 1021.18 1020.84 1020.58 1020.42 1020.36 1020.39 1020.49 1020.63 1020.77 1020.89 1020.96 1020.97 1020.93 1020.83 1020.69 1020.53 1020.35 1020.16 1019.96 1019.75 1019.53 1019.28 1019.02 1018.73
1023.45 1022.99 1022.49 1021.99 1021.53 1021.16 1020.90 1020.77 1020.79 1020.93 1021.17 1021.47 1021.78 1022.04 1022.23 1022.30 1022.24 1022.07 1021.81 1021.49 1021.16 1020.86 1020.62 1020.48 1020.43 1020.47 1020.59 1020.75 1020.92 1021.08 1021.20 1021.28 1021.30 1021.27 1021.20 1021.10 1020.97 1020.82 1020.64 1020.45 1020.23 1019.99 1019.72 1019.43
1022.18 1021.76 1021.33 1020.92 1020.57 1020.30 1020.15 1020.12 1020.21 1020.42 1020.71 1021.05 1021.39 1021.69 1021.91 1022.02 1022.02 1021.91 1021.71 1021.46 1021.18 1020.92 1020.71 1020.58 1020.54 1020.57 1020.68 1020.84 1021.02 1021.20 1021.36 1021.48 1021.56 1021.60 1021.59 1021.55 1021.46 1021.35 1021.20 1021.02 1020.81 1020.57 1020.31 1020.03
1020.78 1020.44 1020.11 1019.83 1019.62 1019.49 1019.46 1019.54 1019.71 1019.98 1020.30 1020.67 1021.03 1021.35 1021.60 1021.76 1021.81 1021.77 1021.63 1021.44 1021.22 1021.01 1020.83 1020.70 1020.65 1020.67 1020.75 1020.89 1021.06 1021.24 1021.41 1021.57 1021.69 1021.78 1021.83 1021.84 1021.80 1021.72 1021.60 1021.45 1021.25 1021.03 1020.78 1020.52
1019.41 1019.16 1018.97 1018.83 1018.77 1018.79 1018.89 1019.06 1019.31 1019.63 1019.98 1020.36 1020.72 1021.06 1021.33 1021.52 1021.62 1021.63 1021.57 1021.44 1021.27 1021.10 1020.94 1020.82 1020.75 1020.73 1020.78 1020.87 1021.01 1021.17 1021.35 1021.52 1021.68 1021.81 1021.91 1021.97 1021.98 1021.94 1021.85 1021.72 1021.56 1021.35 1021.13 1020.91
1018.16 1018.02 1017.96 1017.98 1018.07 1018.23 1018.44 1018.72 1019.03 1019.38 1019.75 1020.13 1020.49 1020.82 1021.10 1021.31 1021.45 1021.51 1021.51 1021.44 1021.32 1021.18 1021.03 1020.90 1020.80 1020.75 1020.75 1020.79 1020.89 1021.02 1021.18 1021.36 1021.54 1021.70 1021.84 1021.94 1022.00 1022.01 1021.96 1021.87 1021.73 1021.57 1021.39 1021.21
1017.08 1017.05 1017.12 1017.29 1017.52 1017.80 1018.13 1018.48 1018.85 1019.22 1019.60 1019.96 1020.31 1020.62 1020.90 1021.13 1021.29 1021.40 1021.43 1021.41 1021.33 1021.22 1021.08 1020.94 1020.82 1020.72 1020.66 1020.66 1020.70 1020.80 1020.94 1021.11 1021.29 1021.48 1021.66 1021.80 1021.90 1021.95 1021.94 1021.89 1021.79 1021.67 1021.53 1021.41
1016.19 1016.26 1016.45 1016.74 1017.09 1017.49 1017.90 1018.32 1018.72 1019.11 1019.48 1019.82 1020.15 1020.45 1020.71 1020.94 1021.12 1021.25 1021.33 1021.34 1021.29 1021.20 1021.08 1020.93 1020.78 1020.64 1020.54 1020.48 1020.48 1020.53 1020.65 1020.80 1020.99 1021.19 1021.39 1021.56 1021.69 1021.78 1021.81 1021.80 1021.74 1021.66 1021.57 1021.50
1015.43 1015.60 1015.89 1016.28 1016.73 1017.21 1017.69 1018.15 1018.58 1018.97 1019.33 1019.66 1019.95 1020.23 1020.48 1020.71 1020.90 1021.05 1021.15 1021.19 1021.18 1021.11 1021.00 1020.85 1020.68 1020.52 1020.38 1020.28 1020.24 1020.26 1020.34 1020.48 1020.65 1020.85 1021.06 1021.25 1021.41 1021.52 1021.59 1021.60 1021.59 1021.55 1021.50 1021.47
1014.76 1015.01 1015.38 1015.85 1016.37 1016.91 1017.44 1017.92 1018.36 1018.75 1019.10 1019.40 1019.68 1019.93 1020.17 1020.39 1020.59 1020.75 1020.88 1020.96 1020.97 1020.93 1020.84 1020.70 1020.54 1020.37 1020.21 1020.09 1020.01 1020.00 1020.05 1020.16 1020.32 1020.51 1020.71 1020.90 1021.06 1021.19 1021.28 1021.32 1021.33 1021.32 1021.31 1021.33
1014.16 1014.45 1014.88 1015.40 1015.96 1016.54 1017.09 1017.59 1018.03 1018.41 1018.74 1019.02 1019.28 1019.52 1019.74 1019.96 1020.17 1020.35 1020.50 1020.61 1020.67 1020.66 1020.60 1020.49 1020.35 1020.19 1020.03 1019.89 1019.80 1019.77 1019.79 1019.87 1020.00 1020.16 1020.34 1020.52 1020.68 1020.80 1020.89 1020.95 1020.98 1020.99 1021.01 1021.05
1013.64 1013.96 1014.41 1014.94 1015.52 1016.09 1016.64 1017.13 1017.56 1017.93 1018.24 1018.51 1018.75 1018.98 1019.21 1019.42 1019.64 1019.84 1020.02 1020.17 1020.26 1020.30 1020.28 1020.22 1020.11 1019.98 1019.84 1019.71 1019.61 1019.56 1019.56 1019.61 1019.70 1019.83 1019.97 1020.11 1020.25 1020.36 1020.44 1020.50 1020.53 1020.56 1020.60 1020.66
1013.25 1013.58 1014.01 1014.53 1015.07 1015.62 1016.14 1016.61 1017.01 1017.36 1017.66 1017.91 1018.14 1018.36 1018.58 1018.81 1019.04 1019.26 1019.47 1019.65 1019.78 1019.87 1019.91 1019.89 1019.83 1019.74 1019.63 1019.52 1019.43 1019.37 1019.34 1019.36 1019.41 1019.49 1019.59 1019.69 1019.78 1019.86 1019.92 1019.97 1020.01 1020.05 1020.10 1020.18
1013.09 1013.38 1013.77 1014.23 1014.72 1015.21 1015.68 1016.10 1016.46 1016.78 1017.05 1017.29 1017.51 1017.72 1017.94 1018.16 1018.40 1018.64 1018.87 1019.08 1019.25 1019.39 1019.48 1019.51 1019.50 1019.46 1019.39 1019.31 1019.23 1019.17 1019.12 1019.11 1019.11 1019.14 1019.18 1019.23 1019.28 1019.33 1019.36 1019.39 1019.43 1019.47 1019.53 1019.62
1013.22 1013.45 1013.76 1014.13 1014.54 1014.95 1015.33 1015.69 1016.00 1016.27 1016.51 1016.72 1016.92 1017.12 1017.33 1017.55 1017.78 1018.03 1018.27 1018.50 1018.70 1018.87 1019.00 1019.09 1019.13 1019.13 1019.10 1019.05 1018.99 1018.93 1018.87 1018.82 1018.79 1018.77 1018.76 1018.75 1018.75 1018.75 1018.76 1018.77 1018.80 1018.84 1018.92 1019.03
1013.66 1013.80 1014.02 1014.28 1014.58 1014.89 1015.18 1015.45 1015.70 1015.91 1016.11 1016.28 1016.45 1016.63 1016.81 1017.01 1017.23 1017.46 1017.70 1017.93 1018.14 1018.33 1018.49 1018.61 1018.69 1018.73 1018.74 1018.72 1018.68 1018.62 1018.56 1018.49 1018.42 1018.36 1018.30 1018.25 1018.20 1018.16 1018.13 1018.13 1018.14 1018.19 1018.27 1018.39
1014.34 1014.40 1014.51 1014.66 1014.85 1015.04 1015.24 1015.42 1015.59 1015.74 1015.88 1016.01 1016.13 1016.27 1016.42 1016.58 1016.77 1016.97 1017.17 1017.38 1017.59 1017.78 1017.94 1018.08 1018.18 1018.25 1018.29 1018.29 1018.27 1018.23 1018.16 1018.09 1018.00 1017.90 1017.81 1017.71 1017.63 1017.55 1017.50 1017.47 1017.48 1017.52 1017.60 1017.73
1015.17 1015.14 1015.16 1015.21 1015.28 1015.38 1015.48 1015.57 1015.66 1015.75 1015.82 1015.90 1015.97 1016.05 1016.15 1016.26 1016.39 1016.54 1016.70 1016.86 1017.03 1017.20 1017.35 1017.48 1017.59 1017.68 1017.74 1017.76 1017.76 1017.73 1017.68 1017.60 1017.51 1017.40 1017.28 1017.16 1017.05 1016.95 1016.87 1016.82 1016.81 1016.84 1016.92 1017.05
1015.97 1015.88 1015.82 1015.79 1015.79 1015.80 1015.81 1015.84 1015.86 1015.88 1015.89 1015.91 1015.92 1015.95 1015.98 1016.03 1016.09 1016.16 1016.26 1016.36 1016.47 1016.59 1016.71 1016.82 1016.93 1017.01 1017.08 1017.13 1017.15 1017.14 1017.10 1017.04 1016.95 1016.84 1016.72 1016.59 1016.46 1016.34 1016.24 1016.18 1016.15 1016.17 1016.24 1016.36
1016.58 1016.45 1016.36 1016.28 1016.22 1016.18 1016.14 1016.11 1016.08 1016.05 1016.01 1015.98 1015.93 1015.90 1015.86 1015.84 1015.82 1015.82 1015.83 1015.86 1015.91 1015.97 1016.04 1016.12 1016.20 1016.28 1016.35 1016.41 1016.44 1016.46 1016.45 1016.41 1016.34 1016.24 1016.13 1016.00 1015.87 1015.74 1015.63 1015.55 1015.50 1015.50 1015.55 1015.65
Thickness
5665 5666 5661 5656 5651 5645 5638 5628 5619 5623 5622 5627 5629 5628 5627 5627 5626 5626 5625 5625 5624 5622 5622 5622 5622 5622 5623 5623 5624 5625 5627 5627 5628 5630 5631 5633 5634 5636 5637 5639 5640 5641 5643 5644
5666 5667 5664 5658 5655 5651 5646 5639 5634 5632 5630 5638 5637 5635 5633 5631 5630 5628 5627 5628 5627 5627 5626 5625 5624 5624 5624 5624 5624 5625 5625 5625 5626 5627 5628 5629 5630 5631 5632 5633 5634 5635 5636 5637
5657 5663 5661 5653 5659 5655 5653 5650 5644 5636 5639 5645 5642 5640 5639 5637 5635 5633 5632 5632 5631 5630 5629 5628 5627 5627 5625 5625 5625 5625 5624 5624 5624 5624 5625 5625 5627 5627 5628 5628 5628 5629 5629 5630
5655 5659 5654 5665 5674 5669 5662 5659 5655 5653 5652 5650 5648 5648 5647 5645 5642 5639 5638 5638 5636 5635 5634 5634 5632 5631 5629 5628 5626 5625 5624 5623 5623 5623 5622 5623 5623 5623 5623 5623 5623 5623 5623 5623
5652 5654 5659 5673 5678 5672 5664 5662 5666 5660 5659 5656 5655 5650 5648 5652 5650 5647 5646 5644 5642 5641 5640 5639 5637 5635 5633 5630 5628 5627 5625 5623 5622 5621 5620 5620 5619 5619 5619 5619 5618 5618 5617 5618
5657 5663 5663 5680 5688 5685 5675 5664 5676 5670 5664 5659 5654 5642 5645 5657 5656 5655 5653 5650 5649 5647 5646 5644 5642 5639 5636 5633 5630 5628 5626 5624 5622 5621 5619 5618 5617 5616 5615 5615 5614 5613 5613 5613
5662 5663 5670 5690 5692 5687 5662 5670 5685 5679 5673 5665 5658 5656 5659 5662 5661 5660 5658 5656 5654 5652 5649 5648 5646 5643 5639 5636 5633 5630 5628 5625 5623 5621 5619 5617 5616 5614 5613 5612 5611 5610 5609 5608
5663 5666 5676 5699 5692 5685 5686 5694 5691 5685 5680 5673 5670 5669 5667 5667 5665 5663 5660 5659 5657 5654 5653 5652 5650 5647 5643 5640 5637 5633 5630 5626 5623 5620 5619 5617 5615 5613 5611 5609 5608 5606 5605 5605
5686 5695 5708 5706 5708 5709 5704 5698 5695 5690 5686 5681 5676 5674 5672 5670 5668 5666 5664 5661 5659 5657 5656 5655 5654 5651 5647 5645 5641 5637 5632 5628 5624 5621 5618 5615 5613 5611 5609 5607 5605 5603 5602 5600
5695 5706 5712 5712 5712 5713 5708 5705 5702 5697 5692 5686 5681 5678 5676 5672 5669 5667 5666 5664 5662 5660 5658 5657 5656 5655 5652 5649 5645 5640 5635 5630 5626 5622 5618 5615 5613 5610 5608 5605 5603 5601 5600 5598
5704 5713 5717 5720 5717 5716 5712 5709 5704 5700 5696 5691 5686 5682 5678 5674 5671 5669 5668 5666 5664 5661 5660 5659 5659 5658 5655 5652 5648 5643 5638 5633 5629 5624 5620 5617 5613 5610 5608 5605 5602 5601 5599 5597
5715 5725 5721 5725 5727 5722 5715 5711 5707 5702 5697 5693 5689 5685 5681 5676 5674 5671 5669 5667 5665 5664 5662 5662 5661 5660 5658 5655 5651 5646 5641 5637 5632 5627 5623 5619 5615 5612 5610 5608 5606 5604 5602 5600
5737 5737 5731 5733 5730 5725 5720 5716 5711 5706 5701 5695 5692 5688 5684 5678 5676 5673 5671 5669 5667 5665 5664 5663 5662 5661 5660 5657 5654 5650 5645 5641 5636 5631 5627 5623 5619 5615 5612 5610 5609 5606 5604 5603
5737 5734 5731 5731 5728 5725 5722 5719 5714 5708 5704 5699 5694 5689 5685 5681 5677 5675 5673 5671 5669 5667 5666 5665 5664 5663 5662 5660 5657 5653 5649 5645 5641 5636 5631 5627 5623 5619 5616 5612 5610 5607 5606 5604
5735 5735 5735 5734 5729 5724 5721 5716 5709 5704 5701 5697 5694 5690 5685 5681 5678 5676 5675 5673 5671 5669 5668 5667 5665 5664 5663 5661 5658 5655 5651 5648 5644 5640 5636 5632 5628 5624 5620 5617 5613 5610 5608 5606
5733 5732 5730 5728 5725 5721 5717 5713 5709 5704 5701 5697 5693 5690 5687 5684 5680 5678 5676 5674 5671 5669 5669 5667 5666 5666 5664 5662 5660 5657 5654 5652 5648 5643 5640 5636 5632 5628 5624 5621 5617 5614 5611 5609
5727 5725 5723 5722 5721 5718 5717 5715 5712 5707 5702 5698 5695 5692 5687 5683 5679 5677 5676 5674 5672 5670 5669 5668 5667 5667 5665 5663 5661 5658 5655 5653 5651 5647 5643 5640 5637 5633 5629 5626 5622 5619 5616 5614
5737 5735 5731 5728 5724 5719 5716 5713 5711 5707 5703 5700 5696 5691 5686 5682 5679 5678 5676 5674 5672 5670 5670 5669 5668 5667 5666 5664 5662 5659 5656 5654 5652 5649 5646 5644 5641 5638 5634 5631 5628 5625 5622 5619
5731 5730 5727 5725 5723 5720 5716 5712 5709 5706 5703 5699 5694 5690 5687 5684 5681 5679 5675 5672 5670 5669 5670 5670 5669 5667 5665 5664 5663 5660 5657 5655 5653 5651 5649 5647 5644 5641 5638 5635 5633 5630 5627 5624
5725 5724 5722 5720 5718 5715 5712 5710 5707 5703 5700 5696 5692 5688 5684 5682 5680 5677 5673 5671 5670 5671 5671 5670 5668 5666 5665 5663 5662 5660 5658 5656 5654 5652 5650 5648 5646 5644 5642 5640 5638 5635 5632 5629
5716 5716 5715 5713 5711 5710 5709 5706 5703 5700 5697 5693 5690 5687 5685 5682 5679 5675 5671 5669 5672 5672 5670 5669 5667 5665 5664 5662 5661 5659 5657 5656 5655 5653 5652 5650 5648 5647 5645 5643 5642 5640 5637 5635
5704 5704 5705 5704 5703 5701 5701 5699 5697 5696 5692 5689 5687 5685 5681 5678 5675 5671 5670 5671 5673 5672 5668 5667 5665 5665 5663 5662 5659 5657 5656 5655 5654 5653 5652 5651 5650 5649 5648 5646 5645 5643 5642 5639
5686 5689 5690 5691 5691 5691 5691 5689 5689 5688 5686 5684 5683 5680 5678 5676 5673 5669 5667 5671 5670 5669 5666 5665 5664 5664 5662 5660 5657 5656 5654 5654 5653 5653 5653 5652 5651 5650 5649 5649 5647 5646 5644 5642
5668 5671 5674 5676 5677 5677 5677 5677 5678 5678 5678 5678 5677 5676 5674 5670 5667 5667 5669 5670 5668 5666 5663 5663 5662 5661 5660 5656 5654 5653 5652 5652 5652 5651 5652 5652 5651 5651 5650 5649 5648 5648 5646 5645
5647 5650 5654 5657 5658 5659 5661 5663 5665 5665 5665 5665 5666 5666 5665 5665 5664 5665 5663 5661 5661 5661 5659 5658 5659 5658 5655 5652 5651 5650 5650 5650 5649 5649 5650 5650 5650 5650 5650 5649 5649 5648 5647 5646
5626 5629 5631 5634 5637 5640 5643 5645 5647 5649 5650 5651 5652 5654 5654 5654 5655 5654 5654 5654 5654 5653 5652 5652 5651 5651 5649 5648 5647 5647 5646 5646 5647 5646 5647 5647 5647 5648 5648 5648 5648 5647 5647 5646
5604 5608 5612 5615 5618 5621 5624 5627 5629 5632 5634 5636 5638 5640 5641 5642 5643 5643 5644 5644 5644 5644 5644 5644 5644 5643 5643 5642 5642 5642 5642 5642 5642 5642 5643 5643 5644 5644 5645 5645 5645 5645 5645 5645